Location: Cutler
(25.6150°N, 80.3110°W)
Time: 06:21:30
(UTC-05:00)

Cosmos 2360 Rocket - Visible Passes

Search period start: 13 December 2017 00:00
Search period end: 23 December 2017 00:00
Orbit: 832 x 847 km, 71.0° (Epoch: 13 December)

Date Brightness Start Highest point End Pass type
(mag) Time Alt. Az. Time Alt. Az. Time Alt. Az.
15 Dec 4.3 06:25:06 10° N 06:29:41 25° ENE 06:34:14 10° ESE visible
16 Dec 4.4 06:09:33 10° NNE 06:13:58 23° ENE 06:18:21 10° ESE visible
16 Dec 4.4 19:09:14 10° SE 19:09:16 10° SE 19:09:16 10° SE visible
16 Dec 4.9 20:50:54 10° SW 20:51:06 11° SW 20:51:06 11° SW visible
17 Dec 4.5 05:54:01 10° NNE 05:58:15 21° ENE 06:02:28 10° ESE visible
17 Dec 4.1 18:53:53 10° SE 18:54:56 13° SE 18:54:56 13° SE visible
17 Dec 4.4 20:35:08 10° SW 20:36:46 19° SW 20:36:46 19° SW visible
18 Dec 4.5 05:38:29 10° NNE 05:42:32 20° ENE 05:46:34 10° ESE visible
18 Dec 3.9 18:38:36 10° SE 18:40:39 14° ESE 18:40:39 14° ESE visible
18 Dec 3.7 20:19:23 10° SW 20:22:29 31° SW 20:22:29 31° SW visible
19 Dec 4.6 05:22:59 10° NNE 05:26:49 18° ENE 05:30:38 10° ESE visible
19 Dec 3.9 18:23:21 10° SE 18:25:44 13° E 18:26:23 13° E visible
19 Dec 2.9 20:03:39 10° SSW 20:08:13 49° WSW 20:08:13 49° WSW visible
20 Dec 4.7 05:07:31 10° NNE 05:11:06 17° ENE 05:14:41 10° ESE visible
20 Dec 4.0 18:08:16 10° ESE 18:10:06 12° E 18:11:55 10° E visible
20 Dec 2.6 19:47:55 10° SSW 19:53:28 60° WNW 19:53:58 57° NW visible
21 Dec 4.7 04:52:04 10° NNE 04:55:23 16° ENE 04:58:41 10° E visible
21 Dec 2.5 06:34:07 10° NNW 06:39:34 50° WSW 06:44:59 10° S visible
21 Dec 2.5 19:32:12 10° SSW 19:37:46 65° WNW 19:39:42 40° N visible
22 Dec 4.8 04:36:39 10° NNE 04:39:40 14° ENE 04:42:40 10° E visible
22 Dec 2.4 06:18:23 10° NNW 06:23:54 54° WSW 06:29:21 10° S visible
22 Dec 2.4 19:16:29 10° SSW 19:22:05 70° WNW 19:25:23 26° N visible
